Regional Weather Roundup
Issued by NWS

Home | Current Version | Previous Version | Graphics & Text | Print | Product List | Glossary On
Versions: 1 2 3 4 5 6 7 8 9 10 11 12 13 14 15 16 17 18 19 20 21 22 23 24 25 26 27 28 29 30 31 32 33 34 35 36 37 38 39 40 41 42 43 44 45 46 47 48 49 50
000
ASUS43 KBIS 260702
RWRND

NORTH DAKOTA REGIONAL WEATHER ROUNDUP
NATIONAL WEATHER SERVICE BISMARCK ND
200 AM CDT THU MAY 26 2016

NOTE: "FAIR" INDICATES FEW OR NO CLOUDS BELOW 12,000 FEET WITH NO
SIGNIFICANT WEATHER AND/OR OBSTRUCTIONS TO VISIBILITY.


NDZ001>003-009>011-017-260800-
NORTHWEST NORTH DAKOTA

CITY           SKY/WX    TMP DP  RH WIND       PRES   REMARKS
WILLISTON      PTCLDY    46  45  96 S7        29.81S
MINOT          CLOUDY    58  55  90 SW12      29.74R
MINOT AFB      CLOUDY    52  52  99 SW7       29.73R
$$

NDZ018>021-031>035-040>046-260800-
SOUTHWEST NORTH DAKOTA

CITY           SKY/WX    TMP DP  RH WIND       PRES   REMARKS
BISMARCK       CLEAR     50  48  93 W6        29.80R
DICKINSON      CLEAR     42  39  89 W6        29.81R
GARRISON         N/A     54  51  90 W12       29.76F
HETTINGER ARPT CLEAR     38  36  92 NW7       29.86S
$$

NDZ004>008-012>016-024-026-027-054-260800-
NORTHEAST NORTH DAKOTA

CITY           SKY/WX    TMP DP  RH WIND       PRES   REMARKS
GRAND FORKS    CLOUDY    56  54  93 SW5       29.69F
GRND FRKS AFB  CLOUDY    56  56 100 W6        29.69F
DEVILS LAKE    CLOUDY    53  53 100 NW5       29.74F
$$

NDZ022-023-025-028>030-036>039-047>053-260800-
SOUTHEAST NORTH DAKOTA

CITY           SKY/WX    TMP DP  RH WIND       PRES   REMARKS
FARGO          CLEAR     54  52  93 W5        29.72R
JAMESTOWN      PTCLDY    56  56 100 S3        29.73S
$$




USA.gov is the U.S. government's official web portal to all federal, state and local government web resources and services.